Bookmark and Share
Track history (hours):
 

Bluefin

More information available from US FCC via Universal Licensing System and Coast Guard Vessel Documentation Center.

Last reported at 2014-Apr-22 23:21 UTC. Time now 2014-Apr-24 22:03 UTC.
Position N 42°14' W 065°34'.

Length 166 m; draft 7.3 m.

MMSI: 367416750.

NotesDate/timePositionNaut miles runAvg speedWind from/ knotsBaromVisibWave heightAir tempDewpointWater temp
2014-Apr-22 23:21N 42°14' W 065°34'18 9.9
2014-Apr-22 21:33N 41°57' W 065°39'37 8.9
2014-Apr-22 17:25N 41°28' W 066°10'74 9.3
2014-Apr-22 09:31N 40°45' W 067°30'12 9.6
2014-Apr-22 08:18N 40°38' W 067°42'18 9.3
2014-Apr-22 06:19N 40°30' W 068°04'54 9.0
2014-Apr-22 00:20N 40°15' W 069°12'7 9.6
2014-Apr-21 23:33N 40°13' W 069°22'10 9.6
2014-Apr-21 22:33N 40°11' W 069°34'10 9.7
2014-Apr-21 21:33N 40°08' W 069°46'9 9.1
2014-Apr-21 20:33N 40°06' W 069°57'9 9.3
2014-Apr-21 19:33N 40°03' W 070°09'9 9.3
2014-Apr-21 18:33N 40°00' W 070°21'9 9.2
2014-Apr-21 17:33N 39°58' W 070°32'9 9.2
2014-Apr-21 16:33N 39°56' W 070°44'9 9.2
2014-Apr-21 15:33N 39°53' W 070°55'9 9.2
2014-Apr-21 14:32N 39°51' W 071°07'9 9.5
2014-Apr-21 13:33N 39°48' W 071°18'10 9.7
2014-Apr-21 12:33N 39°45' W 071°31'9 9.1
2014-Apr-21 11:33N 39°43' W 071°42'9 8.9
2014-Apr-21 10:33N 39°40' W 071°53'9 8.7
2014-Apr-21 09:33N 39°38' W 072°04'8 8.5
2014-Apr-21 08:33N 39°35' W 072°15'9 8.6
2014-Apr-21 07:33N 39°34' W 072°26'9 8.5
2014-Apr-21 06:33N 39°31' W 072°36'8 8.4
2014-Apr-21 05:33N 39°29' W 072°46'9 8.6
2014-Apr-21 04:33N 39°26' W 072°57'8 8.5
2014-Apr-21 03:33N 39°24' W 073°08'8 8.3
2014-Apr-21 02:33N 39°22' W 073°18'8 8.3
2014-Apr-21 01:33N 39°19' W 073°28'8 8.1
2014-Apr-21 00:33N 39°17' W 073°38'9 7.9
2014-Apr-20 23:25N 39°15' W 073°49'75 2.1
2014-Apr-19 11:21N 39°51' W 075°14'0 0.0
2014-Apr-19 10:33N 39°51' W 075°14'0 0.0
2014-Apr-19 09:33N 39°51' W 075°14'0 0.0
2014-Apr-19 08:30N 39°51' W 075°14'0 0.0
2014-Apr-19 07:18N 39°51' W 075°14'0 0.0
2014-Apr-19 06:31N 39°51' W 075°14'1 0.0
2014-Apr-18 07:27N 39°52' W 075°13'0 0.0
2014-Apr-18 06:29N 39°52' W 075°13'0 0.0
2014-Apr-18 05:33N 39°52' W 075°13'55 1.6
2014-Apr-16 18:33N 39°26' W 074°11'1111.1
2014-Apr-16 17:33N 39°36' W 074°04'1110.9
2014-Apr-16 16:33N 39°46' W 073°58'3411.0
2014-Apr-16 13:27N 40°20' W 073°54'910.3
2014-Apr-16 12:33N 40°29' W 073°58'6 0.4
2014-Apr-15 20:17N 40°29' W 074°06'0 0.0
2014-Apr-15 19:23N 40°29' W 074°06'0 0.1
2014-Apr-15 18:26N 40°29' W 074°06'3 2.8
2014-Apr-15 17:28N 40°30' W 074°10'4 0.1
2014-Apr-14 10:33N 40°30' W 074°15'7 6.9
2014-Apr-14 09:33N 40°29' W 074°06'9 9.1
2014-Apr-14 08:33N 40°26' W 073°55'20 9.9
2014-Apr-14 06:30N 40°06' W 073°55'10 9.9
2014-Apr-14 05:29N 39°56' W 073°57'59 2.9
2014-Apr-13 09:09N 39°51' W 075°14'0 0.0
2014-Apr-13 08:33N 39°51' W 075°14'0 0.0
2014-Apr-13 07:33N 39°51' W 075°14'0 0.0
2014-Apr-13 06:13N 39°51' W 075°14'0 0.0
2014-Apr-13 05:33N 39°51' W 075°14'0 0.0
2014-Apr-13 04:33N 39°51' W 075°14'0 0.0
2014-Apr-13 03:32N 39°51' W 075°14'  

Dump ship's entire track history

sailing weather and tide predictions

Bluefin — WDE9397 — position and weather